Temperature
18 18 18 18 18 18 18 18 18 18 18 18 18 18 18 18 18 18 18 18 18 18 18 18 18 18 18 18 18 18 18 18 18 18 18 18 18 18 17 17 17 17 17
18 18 18 18 18 18 18 18 18 18 18 18 18 18 18 18 18 18 18 18 18 18 18 18 18 18 18 18 18 18 18 18 18 18 18 18 18 17 18 18 17 17 17
18 18 18 18 18 18 18 18 18 18 18 18 18 18 18 18 18 18 18 18 18 18 18 18 18 18 18 18 18 18 18 18 18 18 18 18 17 17 17 17 17 17 17
18 18 18 18 18 18 18 18 18 18 18 18 18 18 18 18 18 18 18 18 18 18 18 18 18 18 18 18 18 18 18 18 18 18 18 18 17 17 17 17 17 17 17
18 18 18 18 18 18 18 18 18 18 18 18 18 18 18 18 18 18 18 18 18 18 18 18 18 18 18 18 18 18 18 18 18 18 18 17 17 17 17 17 17 17 17
18 18 18 18 18 18 18 18 18 18 18 18 18 18 18 18 18 18 18 18 18 18 18 18 18 18 18 18 18 18 18 18 18 18 18 17 17 17 17 17 17 17 17
19 18 18 18 18 18 18 18 18 18 18 18 18 18 18 18 18 18 18 18 18 18 18 18 18 18 18 18 18 18 18 17 18 18 18 17 17 17 17 17 17 17 17
19 18 18 18 18 18 18 18 18 18 18 18 18 18 18 18 18 18 18 18 18 18 18 18 18 18 18 18 18 18 18 17 17 17 17 17 17 17 17 17 17 17 17
18 18 18 18 18 18 18 18 18 18 18 18 18 18 18 18 18 18 18 18 18 18 18 18 18 18 17 17 17 17 17 17 17 17 17 17 17 17 17 17 17 17 17
18 18 18 18 18 18 18 18 18 18 18 18 18 18 18 18 18 18 18 18 18 18 18 18 18 18 17 17 17 17 17 17 17 17 17 17 17 17 17 17 17 17 17
19 19 18 19 18 18 18 18 18 18 18 18 18 18 18 18 18 18 18 18 18 18 18 18 17 17 17 17 17 17 17 17 17 17 17 17 17 17 17 17 17 17 17
19 19 19 19 18 18 18 18 18 18 18 18 18 18 18 18 18 18 18 18 18 18 18 18 17 17 17 17 17 17 17 17 17 17 17 17 17 17 17 17 17 17 17
19 19 19 19 19 18 18 18 18 18 18 18 18 18 18 18 18 18 18 18 18 18 18 18 18 18 17 17 17 17 17 17 17 17 17 17 17 17 17 17 17 17 17
19 19 19 19 19 18 18 18 18 18 18 18 18 18 18 18 18 18 18 18 18 18 18 18 18 18 17 17 17 18 18 18 18 18 18 17 17 17 17 17 17 17 17
19 19 19 19 19 19 18 18 18 18 18 18 18 18 18 18 18 18 18 18 18 18 18 18 18 17 17 17 17 17 18 18 18 18 17 17 17 17 17 17 17 17 17
19 19 19 19 19 19 19 18 18 18 18 18 18 18 18 18 18 18 18 18 18 18 18 18 18 17 17 17 17 17 17 18 17 17 17 17 17 17 17 17 17 17 16
20 19 19 19 19 19 19 18 18 18 18 18 18 18 18 18 18 18 18 18 18 18 18 18 18 17 17 17 17 17 17 17 17 17 17 17 17 17 17 17 17 16 16
20 19 19 19 19 19 19 18 18 18 18 18 18 18 18 18 18 18 18 18 18 18 18 18 18 18 17 17 17 17 17 17 17 17 17 17 17 17 17 17 16 16 16
20 20 19 19 19 19 19 19 18 18 18 18 18 18 18 18 18 18 18 18 18 18 18 18 18 18 18 17 17 17 17 17 17 17 17 17 17 17 17 16 16 16 16
20 20 19 19 19 19 19 19 18 18 18 18 18 18 18 18 18 18 18 18 18 18 18 18 18 18 17 17 17 17 17 17 17 17 17 17 16 16 16 16 16 16 16
20 20 20 19 19 19 19 19 19 18 18 18 18 18 18 18 18 18 18 18 18 18 18 18 18 17 17 17 17 16 16 16 16 16 16 16 16 16 16 16 16 16 16
20 20 20 19 19 19 19 19 19 18 18 18 18 18 18 18 18 18 18 18 18 18 18 18 17 17 17 17 17 16 16 16 16 16 16 16 16 16 16 16 16 16 16
20 20 20 19 19 19 19 19 19 18 18 18 18 18 18 18 18 18 18 18 18 18 18 18 17 17 17 17 16 16 16 16 15 15 15 15 15 15 15 15 15 15 15
21 20 20 20 19 19 19 19 19 19 19 18 18 18 18 18 18 18 18 18 18 18 18 17 17 17 17 17 16 16 16 16 15 15 15 15 15 15 15 15 15 15 15
21 20 20 20 19 19 19 19 19 19 18 18 18 18 18 18 18 18 18 18 18 17 17 17 17 17 17 16 16 16 16 16 16 15 14 14 15 15 14 14 14 14 14
21 21 20 20 19 19 19 19 19 19 18 18 18 18 18 18 18 18 18 18 17 17 17 17 17 17 17 16 16 16 16 16 16 15 15 14 14 14 14 14 14 14 14
Wind_Speed
1 2 4 8 10 11 12 13 13 13 14 14 15 16 17 17 17 17 17 17 17 16 16 16 17 17 18 18 18 18 17 17 17 17 16 16 15 15 15 15 15 14 15
1 2 5 8 10 11 12 13 13 13 14 15 15 16 16 16 16 16 16 16 17 17 17 17 18 18 18 18 17 17 17 16 16 15 15 15 15 14 14 14 14 13 14
3 3 5 8 10 12 12 13 13 13 14 15 15 15 15 15 15 15 16 16 17 17 17 17 18 18 18 17 17 16 16 15 15 15 14 12 12 14 14 14 14 14 14
4 4 6 9 11 12 12 13 13 13 14 15 14 14 14 14 14 15 15 16 16 17 17 17 17 17 17 16 16 15 15 14 14 13 11 10 10 13 13 13 13 13 13
4 4 6 10 11 12 12 12 13 14 14 14 14 14 14 14 14 14 14 15 15 16 16 15 16 16 15 15 14 13 13 14 13 11 9 9 9 12 13 13 13 12 12
4 4 6 9 11 12 12 12 12 13 14 14 13 12 12 12 13 13 13 13 14 14 14 14 14 14 13 13 12 12 12 13 12 10 9 9 8 11 12 12 12 11 11
4 4 5 9 10 11 11 11 12 12 12 13 12 11 11 11 11 11 12 12 12 13 13 13 13 12 12 11 11 10 11 12 10 9 8 8 8 10 11 12 12 11 10
4 3 5 8 9 10 10 11 11 11 11 12 11 10 10 10 10 10 11 11 12 12 12 12 11 11 11 10 10 10 10 10 9 8 7 7 9 10 11 11 11 11 10
4 4 4 5 7 8 9 9 9 9 10 11 11 10 10 10 10 10 10 10 11 11 11 11 10 9 9 9 8 8 8 8 7 7 7 7 9 10 11 10 11 10 10
4 4 4 4 5 5 6 7 8 8 8 9 9 10 9 9 9 9 9 9 10 10 10 9 9 8 8 8 7 7 7 7 7 6 6 7 9 10 10 10 10 10 9
2 3 3 3 3 4 4 5 5 6 7 7 7 8 8 7 7 7 7 8 8 8 8 8 7 6 6 5 5 5 5 4 5 5 5 8 9 9 9 10 9 9 9
2 1 1 2 2 2 3 4 4 4 5 5 5 6 6 5 5 5 6 6 6 6 6 6 5 5 5 4 4 4 3 3 3 4 5 8 9 9 9 9 9 9 9
3 2 2 2 1 2 2 3 2 3 3 4 4 4 4 3 3 4 4 4 4 4 3 4 4 3 4 3 2 2 2 2 3 4 5 7 8 9 9 9 9 9 9
3 3 2 2 2 1 1 1 1 1 1 1 1 2 2 2 1 2 2 2 2 2 2 3 2 3 3 2 2 1 1 2 2 3 4 6 8 9 9 9 9 9 9
4 3 3 3 2 2 2 1 1 1 1 1 1 0 1 1 1 1 1 1 1 1 1 2 2 2 2 2 1 1 1 1 2 2 3 5 7 8 9 9 9 9 9
5 5 4 3 3 3 2 2 1 2 2 1 1 2 2 2 2 1 1 1 1 1 1 1 2 2 1 1 1 1 1 1 1 2 2 4 6 7 7 8 8 8 9
5 4 4 4 3 3 3 3 2 2 2 1 2 2 2 3 2 2 1 1 1 1 2 2 2 2 2 2 2 1 1 1 0 1 1 2 2 4 6 7 6 7 8
5 4 4 4 4 3 2 2 1 1 2 2 1 1 2 3 3 3 1 0 0 2 2 2 2 2 1 1 1 1 1 1 1 0 0 1 2 3 4 5 5 5 6
6 6 5 4 4 3 3 2 2 1 1 1 1 1 1 2 3 3 2 1 1 2 2 2 2 3 2 2 2 2 2 1 1 1 1 0 1 1 2 2 3 4 5
5 5 5 4 4 4 3 3 2 1 1 0 0 0 1 1 2 3 2 1 2 2 1 2 2 2 2 2 3 3 3 3 3 2 2 2 1 0 0 0 1 2 3
5 5 5 5 4 3 2 2 2 0 0 1 0 0 0 1 2 3 2 1 2 2 2 2 2 3 2 3 3 2 3 4 4 3 2 2 3 3 3 2 2 2 2
6 5 5 5 4 3 2 2 1 1 0 0 1 1 1 1 1 2 2 2 1 2 2 2 3 2 2 2 2 2 1 2 3 4 3 3 3 3 3 3 3 3 2
7 7 6 5 5 4 3 2 3 3 2 1 1 1 1 1 1 2 2 2 2 2 2 2 3 3 2 1 1 2 2 2 0 2 3 3 3 3 3 4 4 4 3
8 6 5 5 4 3 4 3 3 2 2 1 1 0 1 1 1 1 2 2 2 2 2 2 2 2 3 2 1 1 1 2 2 1 1 3 3 3 3 3 3 3 3
7 6 5 5 4 3 4 4 3 2 2 1 1 1 1 1 1 1 2 2 1 1 1 1 1 1 2 2 2 1 1 1 1 2 1 0 2 2 2 2 3 4 4
6 6 5 5 4 3 4 4 4 4 3 2 1 1 0 1 1 2 2 2 1 1 1 1 1 1 1 2 2 1 2 2 2 2 2 1 0 1 2 2 3 3 4
Wind_Direction
326 344 47 70 77 84 92 95 97 99 101 102 104 107 109 109 109 111 111 112 113 113 113 116 120 122 122 121 120 119 120 119 119 121 121 121 121 120 120 119 118 118 119
105 80 71 80 85 90 96 98 98 98 102 103 104 105 108 107 108 110 110 114 116 116 114 116 119 120 121 122 122 122 123 122 121 122 122 124 125 124 123 122 120 123 124
90 89 88 86 90 95 99 99 98 100 103 105 105 105 105 105 106 108 110 113 115 115 115 114 115 118 120 122 123 124 124 123 121 121 120 121 126 126 126 124 124 127 126
100 97 95 93 93 93 98 98 99 101 104 106 106 105 104 104 106 108 109 111 114 116 115 114 116 118 119 122 125 126 126 125 124 122 118 124 128 130 129 129 130 130 129
89 98 106 102 98 96 96 95 96 99 105 106 105 104 104 106 106 108 110 113 114 115 115 114 116 118 120 123 126 129 130 130 128 121 118 121 125 134 135 134 135 135 133
88 103 116 111 105 100 96 96 97 101 105 105 104 104 105 106 107 109 112 114 116 117 117 117 118 120 122 124 125 127 131 134 127 124 124 127 133 141 141 140 140 139 137
99 104 120 117 109 104 101 99 99 101 106 107 107 107 107 106 107 108 109 113 117 119 118 119 120 122 122 123 126 129 136 140 132 133 135 139 148 150 148 147 148 147 145
92 92 115 119 110 108 105 102 100 100 107 109 108 108 109 109 105 104 109 111 116 120 120 118 119 121 123 126 129 132 137 143 140 142 146 155 162 161 157 156 155 155 153
75 72 78 98 108 110 109 106 103 100 102 105 104 103 101 101 100 103 107 110 115 119 117 118 117 120 124 124 127 130 133 139 136 147 158 165 168 167 166 164 160 161 160
61 54 58 68 78 88 100 105 106 106 102 102 103 102 101 99 97 98 103 108 112 115 118 118 119 118 120 123 123 124 124 126 137 152 164 175 177 176 174 170 169 168 167
85 49 54 63 72 82 93 99 99 103 100 97 95 96 89 78 81 86 95 105 110 112 115 116 115 111 107 111 114 116 116 125 142 158 172 179 178 179 177 176 178 177 178
175 150 86 84 86 90 93 80 73 79 78 80 79 79 79 73 72 77 77 92 108 110 110 106 105 99 87 86 93 95 110 127 149 171 180 179 181 184 185 185 186 185 184
185 175 148 137 127 105 80 84 84 75 79 79 79 85 84 74 63 57 51 48 57 78 76 75 73 74 81 86 85 97 123 149 170 176 182 186 190 192 193 193 193 192 192
169 189 168 161 148 147 132 99 110 103 99 97 88 86 104 83 60 65 65 47 42 57 68 66 67 64 71 83 107 125 150 175 181 184 190 196 200 199 197 196 197 196 198
184 196 183 170 171 161 141 157 137 154 151 165 178 234 160 129 103 106 100 98 89 97 101 90 82 64 61 65 109 142 162 179 196 197 209 207 210 209 204 204 205 205 208
190 196 184 178 177 158 154 164 162 168 170 173 215 228 192 177 162 139 112 112 132 146 133 120 107 83 63 67 66 96 164 196 230 210 226 231 226 220 216 214 213 214 217
184 179 174 176 161 156 165 173 173 179 173 189 221 219 190 174 163 146 124 122 164 152 127 113 101 90 87 79 64 60 75 89 151 204 225 239 240 230 223 217 217 218 221
168 164 172 168 149 149 153 153 148 161 165 199 205 184 175 173 164 146 133 150 176 130 125 124 120 103 91 88 66 32 52 67 84 79 209 232 234 245 240 220 222 226 229
170 164 162 148 141 140 128 118 124 131 148 192 183 165 158 158 159 152 145 164 135 122 130 145 126 131 122 101 83 54 37 35 40 52 50 1 228 235 231 230 240 241 243
166 161 156 142 132 122 104 89 78 64 45 56 126 155 146 140 140 134 124 124 123 123 121 127 130 123 129 118 87 64 43 35 41 41 33 37 48 82 73 264 282 294 280
158 157 157 151 145 126 109 112 114 119 6 19 331 246 200 152 143 137 133 132 133 146 156 144 132 126 122 120 97 64 40 43 46 40 43 49 44 45 52 48 37 16 1
170 171 168 168 162 157 148 140 139 126 112 106 358 17 32 110 149 140 142 146 158 158 154 153 148 141 163 156 132 120 55 28 34 33 43 53 42 46 48 43 46 45 41
179 183 185 180 177 175 153 111 84 66 47 39 25 359 1 48 88 116 153 160 167 164 174 182 171 163 172 189 172 159 162 188 37 25 36 42 38 38 36 40 42 39 42
191 182 176 179 177 174 156 147 148 158 180 212 194 293 350 12 53 120 143 149 150 152 171 198 173 169 163 185 192 189 175 153 153 139 28 32 35 35 30 33 35 37 42
182 174 173 174 177 170 165 164 156 159 179 154 106 86 20 4 18 62 121 120 125 136 146 158 157 158 160 169 174 161 122 96 129 157 183 43 36 22 23 20 25 32 38
169 167 166 169 186 179 174 172 173 176 174 164 166 168 107 7 11 27 96 98 103 107 123 143 142 149 152 154 166 172 164 163 170 164 171 167 95 14 19 24 25 26 37
Height
1502 1501 1500 1499 1497 1497 1498 1499 1499 1500 1501 1501 1502 1502 1503 1505 1506 1507 1508 1509 1511 1512 1513 1514 1516 1519 1522 1526 1529 1531 1534 1536 1538 1540 1542 1544 1546 1547 1549 1550 1552 1553 1554
1504 1503 1503 1502 1501 1501 1502 1502 1503 1503 1504 1505 1505 1505 1506 1507 1509 1510 1511 1512 1513 1514 1515 1515 1517 1521 1524 1528 1531 1533 1536 1538 1540 1542 1544 1546 1547 1549 1550 1552 1553 1554 1556
1506 1506 1506 1505 1505 1505 1505 1506 1506 1506 1507 1507 1508 1509 1510 1511 1512 1513 1513 1514 1516 1517 1518 1520 1521 1524 1528 1531 1533 1536 1538 1540 1542 1544 1546 1547 1549 1550 1552 1553 1555 1556 1557
1508 1509 1508 1509 1508 1508 1508 1509 1509 1509 1509 1510 1511 1512 1513 1514 1515 1515 1516 1517 1519 1520 1522 1524 1526 1528 1531 1534 1536 1538 1540 1542 1544 1546 1547 1549 1550 1552 1553 1555 1556 1557 1558
1510 1511 1512 1512 1512 1512 1512 1512 1512 1512 1512 1513 1514 1515 1516 1517 1517 1518 1519 1520 1521 1523 1525 1527 1529 1532 1534 1536 1539 1541 1543 1544 1546 1548 1549 1551 1552 1553 1555 1556 1557 1558 1559
1513 1514 1514 1515 1515 1515 1515 1515 1515 1515 1516 1517 1517 1518 1519 1520 1520 1520 1521 1522 1524 1526 1528 1530 1532 1534 1537 1539 1541 1543 1545 1546 1548 1549 1550 1552 1553 1554 1556 1557 1558 1559 1560
1516 1517 1517 1518 1518 1518 1518 1518 1518 1519 1519 1520 1521 1521 1522 1522 1522 1522 1522 1523 1525 1528 1530 1533 1535 1537 1539 1541 1543 1545 1546 1548 1549 1551 1552 1553 1554 1555 1556 1558 1559 1560 1561
1519 1520 1520 1521 1521 1521 1522 1522 1522 1522 1522 1523 1524 1524 1524 1524 1524 1524 1524 1525 1527 1530 1533 1535 1538 1540 1542 1544 1545 1547 1548 1550 1551 1552 1553 1554 1555 1556 1557 1558 1560 1561 1562
1522 1522 1523 1523 1524 1525 1525 1525 1525 1525 1525 1526 1527 1527 1527 1527 1527 1526 1527 1528 1530 1533 1536 1538 1540 1542 1544 1546 1547 1549 1550 1551 1552 1553 1554 1555 1556 1557 1558 1559 1560 1561 1562
1524 1525 1526 1526 1527 1527 1528 1528 1528 1529 1529 1529 1530 1530 1531 1531 1531 1530 1531 1532 1534 1536 1538 1541 1542 1544 1546 1548 1549 1550 1551 1552 1553 1554 1555 1556 1557 1558 1559 1560 1561 1562 1563
1527 1527 1528 1529 1529 1530 1530 1531 1531 1532 1532 1532 1533 1534 1534 1534 1535 1535 1535 1536 1538 1540 1542 1543 1545 1547 1548 1549 1550 1552 1553 1554 1555 1556 1556 1557 1558 1558 1559 1560 1561 1562 1563
1529 1530 1530 1531 1532 1532 1533 1533 1534 1534 1535 1535 1536 1536 1537 1538 1538 1539 1539 1540 1541 1543 1544 1546 1547 1549 1550 1551 1552 1553 1554 1555 1556 1556 1557 1558 1558 1559 1559 1560 1561 1562 1563
1531 1532 1533 1533 1534 1535 1536 1536 1536 1537 1537 1538 1539 1540 1540 1541 1541 1542 1543 1543 1544 1546 1547 1548 1549 1550 1551 1552 1553 1554 1555 1556 1557 1557 1558 1558 1558 1559 1560 1560 1561 1562 1563
1533 1534 1535 1536 1536 1537 1538 1538 1539 1539 1540 1541 1542 1543 1543 1544 1544 1545 1545 1546 1547 1548 1549 1550 1551 1552 1552 1553 1554 1555 1556 1556 1557 1557 1558 1558 1558 1559 1559 1560 1561 1562 1562
1535 1536 1537 1538 1538 1539 1540 1540 1541 1542 1543 1543 1544 1545 1545 1546 1546 1547 1547 1548 1549 1549 1550 1551 1552 1553 1553 1554 1555 1556 1556 1557 1557 1557 1558 1558 1558 1559 1559 1560 1560 1561 1561
1536 1537 1538 1539 1540 1541 1542 1542 1543 1544 1545 1545 1546 1547 1547 1547 1548 1548 1549 1549 1550 1551 1551 1552 1553 1553 1554 1555 1555 1556 1556 1556 1557 1557 1557 1558 1558 1558 1558 1559 1559 1560 1560
1537 1538 1540 1540 1541 1542 1543 1544 1545 1546 1546 1547 1548 1548 1548 1549 1549 1550 1550 1551 1551 1552 1552 1552 1553 1554 1554 1554 1555 1555 1555 1556 1556 1556 1556 1557 1557 1557 1557 1558 1558 1558 1559
1538 1539 1540 1541 1542 1543 1545 1546 1546 1547 1548 1548 1549 1549 1550 1550 1550 1550 1551 1551 1552 1552 1552 1552 1553 1553 1554 1554 1554 1554 1554 1555 1555 1555 1555 1555 1555 1555 1556 1556 1556 1557 1557
1539 1540 1541 1542 1543 1544 1546 1547 1547 1548 1549 1549 1550 1550 1550 1551 1551 1551 1551 1551 1552 1552 1552 1552 1552 1553 1553 1553 1553 1553 1553 1553 1553 1553 1553 1553 1553 1554 1554 1554 1555 1555 1555
1539 1540 1541 1543 1544 1545 1546 1547 1548 1549 1549 1550 1550 1551 1551 1551 1551 1551 1551 1551 1552 1552 1552 1552 1552 1552 1552 1552 1552 1551 1552 1551 1552 1552 1552 1552 1552 1552 1552 1552 1553 1553 1553
1539 1540 1541 1543 1544 1545 1546 1547 1548 1549 1549 1550 1550 1551 1551 1551 1551 1551 1551 1551 1551 1551 1551 1551 1551 1550 1550 1551 1551 1550 1551 1550 1550 1550 1550 1551 1550 1551 1550 1551 1551 1551 1551
1538 1540 1541 1543 1544 1545 1547 1548 1548 1549 1550 1550 1550 1551 1551 1551 1551 1551 1551 1550 1550 1550 1550 1550 1549 1549 1549 1549 1549 1549 1550 1551 1550 1550 1550 1550 1550 1549 1549 1549 1549 1549 1549
1537 1539 1541 1542 1544 1545 1547 1547 1548 1549 1549 1550 1550 1551 1551 1551 1551 1550 1550 1550 1550 1549 1549 1548 1548 1548 1547 1548 1548 1549 1549 1548 1549 1550 1549 1549 1549 1549 1548 1548 1547 1547 1547
1536 1538 1540 1542 1543 1545 1546 1547 1548 1549 1549 1550 1550 1550 1550 1551 1550 1550 1550 1549 1549 1548 1548 1547 1547 1546 1546 1546 1546 1547 1548 1547 1548 1548 1549 1548 1548 1547 1547 1546 1546 1546 1545
1535 1537 1539 1541 1543 1544 1546 1547 1547 1548 1549 1549 1550 1550 1550 1550 1550 1549 1549 1549 1548 1547 1547 1546 1545 1545 1545 1545 1545 1545 1545 1546 1546 1546 1547 1547 1547 1547 1546 1546 1545 1545 1544
1533 1536 1538 1540 1542 1543 1545 1546 1546 1547 1548 1548 1549 1549 1549 1549 1549 1549 1548 1548 1547 1546 1546 1545 1544 1544 1544 1544 1544 1544 1544 1544 1544 1544 1544 1545 1545 1546 1546 1545 1545 1544 1544